• In Switzerland
  • List of Countries
  • For 7 days
  • Water Temperature
  • Satellite Maps
  • Weather Map
  • Weather Widgets
  • user-avatar
    Login

    Hourly Weather Oslo

    Today, 23 October, Tuesday

    Time Temperature Precipitation Wind Pressure Humidity
    00:00 +8°C° 0.1 mm 5 mps 739 mmHg 66%
    01:00 +9°C° 0.1 mm 5 mps 738 mmHg 66%
    02:00 +9°C° 0 mm 5 mps 737 mmHg 65%
    03:00 +8°C° 0 mm 4 mps 737 mmHg 64%
    04:00 +8°C° 0 mm 4 mps 736 mmHg 63%
    05:00 +8°C° 0 mm 4 mps 736 mmHg 62%
    06:00 +7°C° 0 mm 4 mps 736 mmHg 61%
    07:00 +7°C° 0 mm 4 mps 737 mmHg 60%
    08:00 +8°C° 0 mm 4 mps 737 mmHg 56%
    09:00 +8°C° 0 mm 4 mps 737 mmHg 53%
    10:00 +9°C° 0 mm 5 mps 738 mmHg 49%
    11:00 +10°C° 0 mm 5 mps 738 mmHg 46%
    12:00 +10°C° 0 mm 5 mps 738 mmHg 42%
    13:00 +10°C° 0 mm 5 mps 738 mmHg 38%
    14:00 +9°C° 0 mm 5 mps 738 mmHg 40%
    15:00 +8°C° 0 mm 5 mps 738 mmHg 41%
    16:00 +8°C° 0 mm 4 mps 739 mmHg 43%
    17:00 +6°C° 0 mm 4 mps 739 mmHg 46%
    18:00 +5°C° 0 mm 4 mps 740 mmHg 49%
    19:00 +4°C° 0 mm 3 mps 741 mmHg 52%
    20:00 +4°C° 0 mm 3 mps 741 mmHg 53%
    21:00 +3°C° 0 mm 3 mps 742 mmHg 55%
    22:00 +3°C° 0 mm 3 mps 743 mmHg 56%
    23:00 +2°C° 0 mm 3 mps 743 mmHg 57%

    Tomorrow, 24 October, Wednesday

    Time Temperature Precipitation Wind Pressure Humidity
    00:00 +2°C° 0 mm 3 mps 744 mmHg 58%
    01:00 +2°C° 0 mm 3 mps 745 mmHg 59%
    02:00 +1°C° 0 mm 3 mps 745 mmHg 58%
    03:00 +1°C° 0 mm 3 mps 746 mmHg 57%
    04:00 +1°C° 0 mm 3 mps 747 mmHg 57%
    05:00 +1°C° 0 mm 3 mps 747 mmHg 57%
    06:00 +1°C° 0 mm 2 mps 748 mmHg 58%
    07:00 +1°C° 0 mm 2 mps 748 mmHg 59%
    08:00 +3°C° 0 mm 2 mps 749 mmHg 55%
    09:00 +4°C° 0 mm 2 mps 749 mmHg 50%
    10:00 +5°C° 0 mm 2 mps 750 mmHg 46%
    11:00 +6°C° 0 mm 2 mps 750 mmHg 43%
    12:00 +7°C° 0 mm 2 mps 750 mmHg 40%
    13:00 +8°C° 0 mm 2 mps 750 mmHg 38%
    14:00 +7°C° 0 mm 2 mps 749 mmHg 41%
    15:00 +6°C° 0 mm 2 mps 749 mmHg 44%
    16:00 +7°C° 0 mm 1 mps 749 mmHg 47%
    17:00 +6°C° 0 mm 1 mps 748 mmHg 51%
    18:00 +5°C° 0 mm 1 mps 747 mmHg 55%
    19:00 +4°C° 0 mm 1 mps 746 mmHg 58%
    20:00 +4°C° 0 mm 1 mps 745 mmHg 61%
    21:00 +4°C° 0 mm 1 mps 744 mmHg 63%
    22:00 +3°C° 0 mm 1 mps 743 mmHg 66%
    23:00 +3°C° 0 mm 1 mps 742 mmHg 68%

    Day after tomorrow, 25 October, Thursday

    Time Temperature Precipitation Wind Pressure Humidity
    00:00 +2°C° 0 mm 2 mps 742 mmHg 70%
    01:00 +2°C° 0 mm 2 mps 741 mmHg 72%
    02:00 +2°C° 0 mm 2 mps 740 mmHg 72%
    03:00 +3°C° 0 mm 2 mps 740 mmHg 72%
    04:00 +3°C° 0 mm 2 mps 739 mmHg 72%
    05:00 +4°C° 0 mm 2 mps 739 mmHg 70%
    06:00 +4°C° 0 mm 3 mps 739 mmHg 68%
    07:00 +4°C° 0 mm 3 mps 739 mmHg 65%
    08:00 +5°C° 0 mm 3 mps 740 mmHg 61%
    09:00 +8°C° 0 mm 3 mps 740 mmHg 57%
    10:00 +9°C° 0 mm 3 mps 741 mmHg 53%
    11:00 +10°C° 0 mm 3 mps 741 mmHg 50%
    12:00 +10°C° 0 mm 3 mps 742 mmHg 47%
    13:00 +12°C° 0 mm 2 mps 742 mmHg 44%
    14:00 +10°C° 0 mm 2 mps 743 mmHg 49%
    15:00 +8°C° 0 mm 2 mps 743 mmHg 53%
    16:00 +8°C° 0 mm 1 mps 743 mmHg 58%
    17:00 +8°C° 0 mm 1 mps 743 mmHg 61%
    18:00 +7°C° 0 mm 1 mps 743 mmHg 65%
    19:00 +6°C° 0 mm 1 mps 744 mmHg 68%
    20:00 +6°C° 0 mm 1 mps 743 mmHg 69%
    21:00 +4°C° 0 mm 0 mps 743 mmHg 71%
    22:00 +4°C° 0 mm 0 mps 743 mmHg 72%
    23:00 +4°C° 0.1 mm 0 mps 743 mmHg 73%

    26 October, Friday

    Time Temperature Precipitation Wind Pressure Humidity
    00:00 +3°C° 0.1 mm 0 mps 743 mmHg 74%
    01:00 +3°C° 0.1 mm 0 mps 743 mmHg 74%
    02:00 +3°C° 0 mm 0 mps 743 mmHg 75%
    03:00 +4°C° 0 mm 1 mps 742 mmHg 75%
    04:00 +4°C° 0 mm 1 mps 742 mmHg 75%
    05:00 +4°C° 0.1 mm 1 mps 742 mmHg 76%
    06:00 +4°C° 0.1 mm 1 mps 742 mmHg 77%
    07:00 +3°C° 0.1 mm 1 mps 742 mmHg 79%
    08:00 +3°C° 0.1 mm 2 mps 741 mmHg 77%
    09:00 +3°C° 0.1 mm 2 mps 741 mmHg 76%
    10:00 +4°C° 0.1 mm 2 mps 741 mmHg 74%
    11:00 +4°C° 0.4 mm 2 mps 741 mmHg 75%
    12:00 +3°C° 0.4 mm 3 mps 740 mmHg 76%
    13:00 +3°C° 0.4 mm 3 mps 740 mmHg 76%
    14:00 +3°C° 0.8 mm 4 mps 739 mmHg 78%
    15:00 +1°C° 0.8 mm 4 mps 739 mmHg 80%
    16:00 +1°C° 0.8 mm 4 mps 738 mmHg 82%
    17:00 +1°C° 0.9 mm 5 mps 738 mmHg 83%
    18:00 0°C° 0.9 mm 5 mps 738 mmHg 83%
    19:00 0°C° 0.9 mm 5 mps 738 mmHg 84%
    20:00 -1°C° 0.8 mm 6 mps 738 mmHg 84%
    21:00 -1°C° 0.8 mm 6 mps 737 mmHg 84%
    22:00 -2°C° 0.8 mm 6 mps 737 mmHg 84%
    23:00 -2°C° 0.4 mm 6 mps 737 mmHg 83%

    27 October, Saturday

    Time Temperature Precipitation Wind Pressure Humidity
    00:00 -2°C° 0.4 mm 6 mps 737 mmHg 82%
    01:00 -2°C° 0.4 mm 6 mps 737 mmHg 82%
    02:00 -2°C° 0.6 mm 7 mps 737 mmHg 82%
    03:00 -2°C° 0.6 mm 7 mps 737 mmHg 82%
    04:00 -2°C° 0.6 mm 7 mps 737 mmHg 82%
    05:00 -2°C° 0.4 mm 7 mps 738 mmHg 81%
    06:00 -2°C° 0.4 mm 7 mps 738 mmHg 80%
    07:00 -2°C° 0.4 mm 7 mps 739 mmHg 80%
    08:00 -1°C° 0.2 mm 7 mps 739 mmHg 79%
    09:00 -1°C° 0.2 mm 6 mps 740 mmHg 79%
    10:00 -1°C° 0.2 mm 6 mps 741 mmHg 78%
    11:00 -1°C° 0.1 mm 6 mps 741 mmHg 76%
    12:00 -1°C° 0.1 mm 6 mps 742 mmHg 75%
    13:00 -1°C° 0.1 mm 6 mps 743 mmHg 73%
    14:00 0°C° 0 mm 5 mps 743 mmHg 73%
    15:00 -1°C° 0 mm 5 mps 744 mmHg 74%
    16:00 -1°C° 0 mm 5 mps 745 mmHg 74%
    17:00 -2°C° 0 mm 5 mps 745 mmHg 75%
    18:00 -2°C° 0 mm 5 mps 746 mmHg 76%
    19:00 -4°C° 0 mm 5 mps 747 mmHg 77%
    20:00 -3°C° 0 mm 4 mps 748 mmHg 77%
    21:00 -3°C° 0 mm 4 mps 748 mmHg 78%
    22:00 -4°C° 0 mm 4 mps 749 mmHg 78%
    23:00 -4°C° 0 mm 4 mps 749 mmHg 78%

    28 October, Sunday

    Time Temperature Precipitation Wind Pressure Humidity
    00:00 -4°C° 0 mm 4 mps 750 mmHg 78%
    01:00 -4°C° 0 mm 4 mps 751 mmHg 77%
    02:00 -4°C° 0 mm 4 mps 751 mmHg 77%
    03:00 -5°C° 0 mm 4 mps 751 mmHg 77%
    04:00 -5°C° 0 mm 4 mps 752 mmHg 78%
    05:00 -5°C° 0 mm 4 mps 752 mmHg 77%
    06:00 -5°C° 0 mm 4 mps 752 mmHg 76%
    07:00 -5°C° 0 mm 4 mps 753 mmHg 76%
    08:00 -4°C° 0 mm 4 mps 753 mmHg 72%
    09:00 -4°C° 0 mm 4 mps 753 mmHg 68%
    10:00 -4°C° 0 mm 5 mps 754 mmHg 64%
    11:00 -2°C° 0 mm 5 mps 754 mmHg 61%
    12:00 -2°C° 0 mm 5 mps 754 mmHg 59%
    13:00 -1°C° 0 mm 5 mps 753 mmHg 56%
    14:00 -2°C° 0 mm 4 mps 754 mmHg 59%
    15:00 -2°C° 0 mm 4 mps 754 mmHg 62%
    16:00 -2°C° 0 mm 3 mps 754 mmHg 65%
    17:00 -4°C° 0 mm 3 mps 754 mmHg 68%
    18:00 -4°C° 0 mm 3 mps 754 mmHg 70%
    19:00 -5°C° 0 mm 3 mps 755 mmHg 72%
    20:00 -5°C° 0 mm 3 mps 755 mmHg 73%
    21:00 -6°C° 0 mm 3 mps 755 mmHg 75%
    22:00 -6°C° 0 mm 3 mps 756 mmHg 77%
    23:00 -6°C° 0 mm 3 mps 756 mmHg 78%

    29 October, Monday

    Time Temperature Precipitation Wind Pressure Humidity
    00:00 -7°C° 0 mm 3 mps 756 mmHg 80%
    01:00 -6°C° 0 mm 2 mps 756 mmHg 81%
    02:00 -6°C° 0 mm 2 mps 756 mmHg 82%
    03:00 -7°C° 0 mm 2 mps 756 mmHg 83%
    04:00 -7°C° 0 mm 2 mps 756 mmHg 84%
    05:00 -7°C° 0 mm 2 mps 756 mmHg 84%
    06:00 -7°C° 0 mm 2 mps 756 mmHg 84%
    07:00 -8°C° 0 mm 2 mps 756 mmHg 84%
    08:00 -7°C° 0 mm 2 mps 756 mmHg 80%
    09:00 -6°C° 0 mm 2 mps 756 mmHg 76%
    10:00 -5°C° 0 mm 2 mps 756 mmHg 72%
    11:00 -4°C° 0 mm 2 mps 756 mmHg 70%
    12:00 -3°C° 0 mm 2 mps 756 mmHg 68%
    13:00 0°C° 0 mm 1 mps 756 mmHg 66%
    14:00 -1°C° 0 mm 1 mps 756 mmHg 70%
    15:00 -1°C° 0 mm 1 mps 755 mmHg 74%
    16:00 -2°C° 0 mm 1 mps 755 mmHg 78%
    17:00 -2°C° 0 mm 1 mps 756 mmHg 80%
    18:00 -2°C° 0 mm 1 mps 756 mmHg 83%
    19:00 -3°C° 0 mm 1 mps 756 mmHg 85%
    20:00 -3°C° 0.1 mm 1 mps 756 mmHg 87%
    21:00 -3°C° 0.1 mm 1 mps 756 mmHg 88%
    22:00 -3°C° 0.1 mm 1 mps 756 mmHg 90%
    23:00 -3°C° 0.1 mm 1 mps 756 mmHg 91%
    Show more